Location: Columbia
(38.9520°N, 92.3340°W)
Time: 16:21:12
(UTC-05:00)

Cosmos 2219 Rocket - Visible Passes

Search period start: 22 May 2017 00:00
Search period end: 01 June 2017 00:00
Orbit: 827 x 848 km, 71.0° (Epoch: 21 May)

Date Brightness Start Highest point End Pass type
(mag) Time Alt. Az. Time Alt. Az. Time Alt. Az.
22 May 5.0 01:39:30 10° NNE 01:41:14 11° NE 01:42:59 10° ENE visible
22 May 2.4 03:20:33 10° NNW 03:26:15 72° ENE 03:31:39 11° SSE visible
22 May 3.8 05:06:34 10° WNW 05:09:28 14° W 05:12:23 10° SW visible
23 May 5.1 01:23:46 10° NE 01:24:49 10° NE 01:25:51 10° ENE visible
23 May 2.5 03:04:13 10° NNW 03:09:54 66° ENE 03:13:56 19° SE visible
23 May 3.7 04:49:56 10° WNW 04:53:11 16° W 04:55:32 12° SW visible
24 May 2.6 02:47:53 10° NNW 02:53:32 61° ENE 02:56:37 27° SE visible
24 May 3.6 04:33:19 10° WNW 04:36:53 17° W 04:38:15 16° WSW visible
25 May 2.7 02:31:34 10° NNW 02:37:10 57° ENE 02:39:34 33° SE visible
25 May 3.5 04:16:46 10° WNW 04:20:36 19° W 04:21:13 18° WSW visible
26 May 2.8 02:15:15 10° NNW 02:20:48 52° ENE 02:22:43 37° ESE visible
26 May 3.5 04:00:14 10° NW 04:04:18 20° W 04:04:22 20° W visible
27 May 2.9 01:58:56 10° NNW 02:04:26 48° ENE 02:05:59 39° ESE visible
27 May 3.5 03:43:44 10° NW 03:47:40 22° W 03:47:40 22° W visible
28 May 3.0 01:42:37 10° N 01:48:05 45° ENE 01:49:22 38° E visible
28 May 3.5 03:27:15 10° NW 03:31:03 24° W 03:31:03 24° W visible
29 May 3.1 01:26:19 10° N 01:31:42 41° ENE 01:32:50 37° E visible
29 May 3.4 03:10:46 10° NW 03:14:31 25° W 03:14:31 25° W visible
30 May 3.2 01:10:01 10° N 01:15:20 38° ENE 01:16:23 35° E visible
30 May 3.4 02:54:18 10° NW 02:58:05 27° W 02:58:05 27° W visible
31 May 3.3 00:53:44 10° N 00:58:57 36° ENE 01:00:00 33° E visible
31 May 3.3 02:37:52 10° NW 02:41:41 28° W 02:41:41 28° W visible
